San Jose, Costa Rica

7:24 AM CST on May 27, 2017 (GMT -0600)
Juan Santamaria International

Weather History for MROC - December, 2011

Change the Weather History Date:

Tuesday, December 20, 2011

  Actual Average Record
Temperature  
Mean Temperature 71 °F -  
Max Temperature 79 °F 80 °F 86 °F (2006)
Min Temperature 63 °F 63 °F 63 °F (2012)
Cooling Degree Days 6    
Growing Degree Days 21 (Base 50)    
Moisture  
Dew Point 58 °F    
Average Humidity 63    
Maximum Humidity 83    
Minimum Humidity 41    
Precipitation  
Precipitation 0.00 in 0.02 in - ()
Sea Level Pressure  
Sea Level Pressure 29.90 in    
Wind  
Wind Speed 11 mph ()    
Max Wind Speed 128 mph    
Max Gust Speed -    
Visibility 7.8 miles    
Events      
Averages and records for this station are not official NWS values.
T = Trace of Precipitation, MM = Missing Value Source: Averaged Metar Reports

Daily Weather History Graph

Daily Weather History Graph

Search for Another Location

Airport or City:

Trip Planner

Search our weather history database for the weather conditions in past years. The results will help you decide how hot, cold, wet, or windy it might be!

Date:

Astronomy

Dec. 20, 2011 Rise Set
Actual Time 5:48 AM CST 5:20 PM CST
Civil Twilight 5:25 AM CST 5:43 PM CST
Nautical Twilight 4:58 AM CST 6:09 PM CST
Astronomical Twilight 4:32 AM CST 6:36 PM CST
Moon 1:33 AM CST (12/20) 1:36 PM CST (12/20)
Length of Visible Light 12h 18m
Length of Day
11h 32m
Waning Crescent, 21% of the Moon is Illuminated
Dec 20
Waning Crescent
Dec 24
New
Jan 1
First Quarter
Jan 9
Full
Jan 16
Last Quarter

Hourly Weather History & Observations

Time (CST) Temp. Dew Point Humidity Pressure Visibility Wind Dir Wind Speed Gust Speed Precip Events Conditions
12:00 AM 66 °F 56 °F 62% 29.88 in 12 mi ESE 8.1 mph - -  
12:00 AM 66.2 °F 55.4 °F 68% 29.99 in 6.2 mi ESE 8.1 mph - N/A   Unknown
1:00 AM 64.4 °F 55.4 °F 73% 29.96 in 6.2 mi ENE 5.8 mph - N/A   Unknown
2:00 AM 66.2 °F 55.4 °F 68% 29.94 in 6.2 mi East 6.9 mph - N/A   Unknown
3:00 AM 66 °F 55 °F 59% 29.85 in 12 mi ESE 9.2 mph - -  
3:00 AM 66.2 °F 55.4 °F 68% 29.93 in 6.2 mi ESE 9.2 mph - N/A   Unknown
4:00 AM 66.2 °F 55.4 °F 68% 29.93 in - East 8.1 mph - N/A   Clear
5:00 AM 66.2 °F 55.4 °F 68% 29.94 in 6.2 mi East 8.1 mph - N/A   Unknown
6:00 AM 66 °F 57 °F 64% 29.87 in 12 mi ESE 12.7 mph - -   Scattered Clouds
6:00 AM 66.2 °F 57.2 °F 73% 29.95 in 6.2 mi ESE 12.7 mph - N/A   Partly Cloudy
7:00 AM 69.8 °F 59.0 °F 68% 29.97 in 6.2 mi East 9.2 mph - N/A   Partly Cloudy
8:00 AM 71.6 °F 60.8 °F 69% 29.98 in 6.2 mi ESE 13.8 mph - N/A   Scattered Clouds
9:00 AM 73.4 °F 60.8 °F 65% 29.98 in 6.2 mi ESE 11.5 mph - N/A   Scattered Clouds
10:00 AM 71.6 °F 66.2 °F 83% 29.96 in 6.2 mi West 3.5 mph - N/A   Heavy Drizzle
11:00 AM 75.2 °F 60.8 °F 61% 29.95 in 6.2 mi ESE 10.4 mph - N/A   Mostly Cloudy
12:00 PM 77 °F 61 °F 48% 29.82 in 12 mi ESE 12.7 mph - -   Partly Cloudy
12:00 PM 77.0 °F 60.8 °F 57% 29.91 in 6.2 mi ESE 127.7 mph - N/A   Mostly Cloudy
1:00 PM 75.2 °F 60.8 °F 61% 29.89 in 6.2 mi East 8.1 mph - N/A   Mostly Cloudy
2:00 PM 77.0 °F 59.0 °F 54% 29.86 in 6.2 mi East 12.7 mph - N/A   Scattered Clouds
3:00 PM 77 °F 58 °F 41% 29.74 in 12 mi East 10.4 mph - -   Partly Cloudy
3:00 PM 77.0 °F 57.2 °F 50% 29.84 in 6.2 mi East 10.4 mph - N/A   Scattered Clouds
4:00 PM 77.0 °F 57.2 °F 50% 29.83 in 6.2 mi ENE 16.1 mph - N/A   Scattered Clouds
6:00 PM 72 °F 60 °F 56% 29.78 in 12 mi ENE 6.9 mph - -   Scattered Clouds
9:00 PM 69 °F 61 °F 69% 29.81 in 12 mi East 11.5 mph - -   Scattered Clouds
9:00 PM 69.8 °F 60.8 °F 73% 29.92 in 6.2 mi East 11.5 mph - N/A   Partly Cloudy
10:00 PM 69.8 °F 59.0 °F 68% 29.92 in 6.2 mi East 8.1 mph - N/A   Unknown
11:00 PM - - N/A% 29.91 in 6.2 mi East 11.5 mph - N/A   Unknown